Location: Newark
(13.6797°N, 8.5297°E)
Time: 03:27:04
(UTC+00:00)

Courier 1B Rocket - Pass Details

Date: 19 January 2020
Orbit: 920 x 1202 km, 28.2° (Epoch: 17 February)

Event Time Altitude Azimuth Distance (km) Brightness Sun altitude
Rises 13:07:06 0° 271° (W) 3,777 8.4 49.3°
Reaches altitude 10° 13:10:11 10° 281° (W) 2,778 7.7 48.9°
Maximum altitude 13:16:05 32° 343° (NNW) 1,581 6.2 48.1°
Drops below altitude 10° 13:21:42 10° 46° (NE) 2,638 7.0 47.2°
Sets 13:24:34 0° 56° (NE) 3,561 7.6 46.8°
